Flag for Germany Weather past 2 weeks in Sinsheim, Baden-Württemberg, Germany

Now
52 °F

Sprinkles. Broken clouds.


Feels Like: 46 °F
Forecast: 39 / 46 °F
Wind: 20 mph from West

Location: Baden Wurttemberg - Neuostheim

Current Time: Oct 21, 2014 at 7:23:02 PM

Latest Report: Oct 21, 2014 at 6:50 PM


Visibility: 4 mi

Pressure: 29.65 "Hg

Humidity: 94%

Dew point: 50 °F

Location of SinsheimLocation

Historic Weather in Sinsheim — Graph

°F

Sinsheim temperature yesterday

Maximum temperature yesterday: 66 °F (at 6:50 AM)
Minimum temperature yesterday: 63 °F (at 10:50 AM)
Average temperature yesterday: 65 °F

Past Weeks' High & Low Weather Summary

 TemperatureHumidityPressure
High75 °F (Oct 19, 4:20 PM)100% (Oct 9, 10:20 PM)30.18 "Hg (Oct 9, 10:20 PM)
Low46 °F (Oct 18, 7:20 AM)57% (Oct 14, 3:20 PM)29.62 "Hg (Oct 21, 5:50 PM)
Average62 °F82%29.89 "Hg
* Reported Oct 6 5:20 PM — Oct 21 5:50 PM, Sinsheim, Weather by CustomWeather, © 2014

Note: Actual official high and low records may vary slightly from our data, if they occured in-between our weather recording intervals... More about our weather records

Advertising

Sinsheim weather history for previous 24 hours

 ConditionsComfort  
Time TempWeatherWind HumidityBarometerVisibility
5:50 PM
Oct 21
59 °FScattered clouds.12 mph77%29.62 "HgN/A
5:20 PM59 °FLight rain. Partly sunny.12 mph77%29.65 "HgN/A
4:50 PM61 °FLight rain. Partly sunny.12 mph68%29.68 "HgN/A
4:20 PM61 °FBroken clouds.12 mph63%29.71 "HgN/A
3:50 PM63 °FBroken clouds.12 mph59%29.71 "HgN/A
3:20 PM61 °FLight rain. Partly sunny.10 mph59%29.74 "HgN/A
2:50 PM61 °FPartly sunny.10 mph59%29.77 "HgN/A
2:20 PM61 °FBroken clouds.13 mph59%29.80 "HgN/A
1:50 PM61 °FBroken clouds.13 mph63%29.80 "HgN/A
1:20 PM61 °FBroken clouds.12 mph63%29.83 "HgN/A
12:50 PM59 °FBroken clouds.12 mph68%29.83 "HgN/A
12:20 PM59 °FBroken clouds.8 mph68%29.86 "HgN/A
11:50 AM59 °FBroken clouds.9 mph72%29.89 "HgN/A
11:20 AM57 °FBroken clouds.9 mph82%29.89 "HgN/A
10:50 AM55 °FBroken clouds.6 mph88%29.89 "Hg5 mi
10:20 AM55 °FBroken clouds.6 mph88%29.89 "HgN/A
9:50 AM54 °FBroken clouds.5 mph88%29.92 "HgN/A
9:20 AM52 °FPartly sunny.3 mph88%29.92 "HgN/A
8:50 AM54 °FPassing clouds.3 mph88%29.92 "HgN/A
8:20 AM54 °FPassing clouds.5 mph82%29.92 "HgN/A
7:50 AM52 °FPassing clouds.5 mph94%29.92 "HgN/A
7:20 AM52 °FClear.3 mph94%29.95 "Hg10 mi
6:50 AM48 °FClear.2 mph100%29.95 "Hg10 mi
6:20 AM50 °FClear.3 mph94%29.95 "Hg10 mi
5:50 AM46 °FClear.1 mph100%29.95 "Hg10 mi
9:20 PM
Oct 20
63 °FPartly cloudy.5 mph73%30.01 "HgN/A
8:50 PM63 °FPassing clouds.6 mph73%30.01 "HgN/A
8:20 PM63 °FClear.5 mph73%30.01 "Hg10 mi
7:50 PM63 °FOvercast.6 mph73%30.04 "HgN/A
7:20 PM64 °FBroken clouds.7 mph68%30.01 "HgN/A
Weather by CustomWeather, © 2014

See weather overviewHow to use our weather pages